Вернуться в каталог

FENGYUN 1C DEB

LostPO
NORAD 31960·DEBRIS·🇨🇳 China

Запущен May 10, 1999 с Taiyuan Satellite Launch Center

Loading…

Ближайшие Пролёты (ближайшие 24 часа)

TLE

УстаревшееSource: Space-Track

Эпоха: Oct 18, 2021, 15:27 UTC

1 31960U 99025CNM 21291.64411027  .00000474  00000-0  34527-3 0  9993
2 31960  99.6903 232.9756 0148334 260.2517  98.1864 13.96575990726282

Отслеживайте FENGYUN 1C DEB в реальном времени с AllMySat

Download on the App Store